Weather in Malmyzh

Russia / Kirov Oblast     56°31′28″N   50°40′41″E
temp.,
°C
wind,
m/s
gust,
m/s
humid.,
%
clouds,
%
prec.,
mm/h
press.,
hPa
HPBL,
m
25 october, mon
mon2500:00+4wsw4874100 0.0 1012461
03:00+3wsw2578100 0.0 1012272
06:00+2w3595100 0.0 1012395
09:00+1nnw61095100 0.5 1014520
12:00+2nnw796582 0.1 10171077
15:00+2nnw69635 0.1 10191091
18:00−1nw410735 0.0 1022351
21:00−2wnw49805 0.0 1023246
26 october, tue
tue2600:00−3w388474 0.0 1024199
03:00−2wsw4117799 0.0 1023351
06:000sw61367100 0.0 1021671
09:00+1sw71463100 0.1 1020736
12:00+1wsw7127795 0.2 1019720
15:00+2wsw6117199 0.3 1018770
18:00+2wsw51174100 0.1 1019526
21:00+2wsw5107798 0.1 1019438
27 october, wed
wed2700:000wsw4984100 0.0 1019262
03:000sw488698 0.0 1019263
06:00−1sw4990100 0.0 1019248
09:00+1sw5975100 0.0 1018403
12:00+4wsw6964100 0.0 1017611
15:00+4sw51165100 0.0 1016599
18:00+3sw61367100 0.0 1014509
21:00+3sw61467100 0.0 1013549
28 october, thu
thu2800:00+3sw71568100 0.0 1010637
03:00+2sw71596100 0.6 1009805
06:00+4wsw81597100 1.0 1008978
09:00+5w91478100 1.2 10091099
12:00+5w81286100 0.1 10111026
15:00+5w61192100 0.2 1012988
18:00+5w51183100 0.3 1013686
21:00+5w51183100 0.4 1012532
29 october, fri
fri2900:00+5w51085100 0.2 1012751
03:00+1n71095100 0.3 1014596
06:00−3nnw610775 0.1 1017660
09:00−3n696784 0.1 1021811
12:00−1n6857100 0.0 10231040
15:00−1n57625 0.0 1026859
18:00−3n48755 0.0 1029374
21:00−4n35815 0.0 1032167